• In Uzbekistan
  • List of Countries
  • For 7 days
  • Water Temperature
  • Satellite Maps
  • Weather Map
  • Weather Widgets
  • user-avatar
    Login

    Hourly Weather Kuzel

    Today, 23 June, Saturday

    Time Temperature Precipitation Wind Pressure Humidity
    00:00 +13°C° 0 mm 1 mps 740 mmHg 88%
    01:00 +12°C° 0 mm 1 mps 741 mmHg 88%
    02:00 +12°C° 0 mm 1 mps 741 mmHg 87%
    03:00 +12°C° 0 mm 1 mps 741 mmHg 89%
    04:00 +14°C° 0 mm 1 mps 741 mmHg 81%
    05:00 +16°C° 0 mm 1 mps 741 mmHg 73%
    06:00 +19°C° 0 mm 1 mps 741 mmHg 65%
    07:00 +21°C° 0 mm 1 mps 741 mmHg 57%
    08:00 +23°C° 0 mm 2 mps 741 mmHg 50%
    09:00 +25°C° 0 mm 2 mps 742 mmHg 41%
    10:00 +26°C° 0 mm 2 mps 742 mmHg 39%
    11:00 +27°C° 0 mm 2 mps 742 mmHg 38%
    12:00 +28°C° 0 mm 2 mps 742 mmHg 36%
    13:00 +28°C° 0 mm 2 mps 741 mmHg 37%
    14:00 +29°C° 0 mm 2 mps 741 mmHg 37%
    15:00 +29°C° 0 mm 2 mps 741 mmHg 38%
    16:00 +28°C° 0.1 mm 2 mps 741 mmHg 46%
    17:00 +27°C° 0.1 mm 2 mps 741 mmHg 54%
    18:00 +26°C° 0.1 mm 1 mps 741 mmHg 62%
    19:00 +24°C° 0.1 mm 1 mps 741 mmHg 71%
    20:00 +23°C° 0.1 mm 1 mps 742 mmHg 80%
    21:00 +21°C° 0.1 mm 1 mps 742 mmHg 89%
    22:00 +20°C° 0 mm 1 mps 742 mmHg 91%
    23:00 +20°C° 0 mm 1 mps 742 mmHg 93%

    Tomorrow, 24 June, Sunday

    Time Temperature Precipitation Wind Pressure Humidity
    00:00 +19°C° 0 mm 1 mps 742 mmHg 95%
    01:00 +19°C° 0 mm 1 mps 743 mmHg 96%
    02:00 +19°C° 0 mm 1 mps 743 mmHg 96%
    03:00 +16°C° 0 mm 0 mps 743 mmHg 96%
    04:00 +18°C° 0 mm 0 mps 743 mmHg 92%
    05:00 +19°C° 0 mm 0 mps 744 mmHg 87%
    06:00 +21°C° 0 mm 0 mps 744 mmHg 83%
    07:00 +25°C° 0 mm 1 mps 744 mmHg 74%
    08:00 +26°C° 0 mm 1 mps 744 mmHg 66%
    09:00 +28°C° 0 mm 1 mps 744 mmHg 57%
    10:00 +29°C° 0 mm 1 mps 744 mmHg 52%
    11:00 +30°C° 0 mm 1 mps 744 mmHg 46%
    12:00 +32°C° 0 mm 1 mps 744 mmHg 41%
    13:00 +32°C° 0 mm 1 mps 744 mmHg 39%
    14:00 +32°C° 0 mm 1 mps 744 mmHg 38%
    15:00 +32°C° 0 mm 1 mps 744 mmHg 36%
    16:00 +32°C° 0 mm 1 mps 744 mmHg 40%
    17:00 +31°C° 0 mm 1 mps 744 mmHg 43%
    18:00 +31°C° 0 mm 1 mps 744 mmHg 47%
    19:00 +26°C° 0 mm 0 mps 744 mmHg 53%
    20:00 +23°C° 0 mm 0 mps 744 mmHg 60%
    21:00 +21°C° 0 mm 0 mps 744 mmHg 66%
    22:00 +20°C° 0 mm 0 mps 744 mmHg 68%
    23:00 +19°C° 0 mm 0 mps 744 mmHg 70%

    Day after tomorrow, 25 June, Monday

    Time Temperature Precipitation Wind Pressure Humidity
    00:00 +19°C° 0 mm 0 mps 744 mmHg 72%
    01:00 +18°C° 0 mm 0 mps 745 mmHg 74%
    02:00 +18°C° 0 mm 0 mps 745 mmHg 75%
    03:00 +18°C° 0 mm 0 mps 745 mmHg 76%
    04:00 +20°C° 0 mm 0 mps 745 mmHg 71%
    05:00 +22°C° 0 mm 0 mps 745 mmHg 65%
    06:00 +24°C° 0 mm 0 mps 745 mmHg 60%
    07:00 +26°C° 0 mm 0 mps 745 mmHg 54%
    08:00 +28°C° 0 mm 0 mps 745 mmHg 48%
    09:00 +30°C° 0 mm 0 mps 745 mmHg 43%
    10:00 +33°C° 0 mm 1 mps 745 mmHg 41%
    11:00 +33°C° 0 mm 1 mps 745 mmHg 39%
    12:00 +34°C° 0 mm 1 mps 745 mmHg 37%
    13:00 +35°C° 0 mm 2 mps 745 mmHg 38%
    14:00 +34°C° 0 mm 2 mps 745 mmHg 39%
    15:00 +34°C° 0 mm 2 mps 745 mmHg 41%
    16:00 +34°C° 0 mm 2 mps 745 mmHg 44%
    17:00 +32°C° 0 mm 2 mps 745 mmHg 48%
    18:00 +32°C° 0 mm 1 mps 745 mmHg 52%
    19:00 +29°C° 0 mm 1 mps 745 mmHg 60%
    20:00 +27°C° 0 mm 1 mps 745 mmHg 67%
    21:00 +25°C° 0 mm 1 mps 745 mmHg 75%
    22:00 +24°C° 0.2 mm 1 mps 746 mmHg 79%
    23:00 +23°C° 0.2 mm 1 mps 746 mmHg 83%

    26 June, Tuesday

    Time Temperature Precipitation Wind Pressure Humidity
    00:00 +22°C° 0.2 mm 1 mps 746 mmHg 87%
    01:00 +22°C° 1 mm 1 mps 746 mmHg 89%
    02:00 +21°C° 1 mm 1 mps 746 mmHg 91%
    03:00 +21°C° 1 mm 1 mps 746 mmHg 93%
    04:00 +22°C° 0.1 mm 1 mps 746 mmHg 90%
    05:00 +23°C° 0.1 mm 1 mps 747 mmHg 88%
    06:00 +24°C° 0.1 mm 1 mps 747 mmHg 85%
    07:00 +26°C° 0.5 mm 1 mps 747 mmHg 77%
    08:00 +28°C° 0.5 mm 1 mps 747 mmHg 69%
    09:00 +29°C° 0.5 mm 1 mps 747 mmHg 62%
    10:00 +31°C° 0 mm 1 mps 747 mmHg 55%
    11:00 +32°C° 0 mm 1 mps 747 mmHg 47%
    12:00 +33°C° 0 mm 1 mps 747 mmHg 40%
    13:00 +33°C° 0 mm 1 mps 747 mmHg 40%
    14:00 +32°C° 0 mm 1 mps 747 mmHg 41%
    15:00 +32°C° 0 mm 1 mps 747 mmHg 41%
    16:00 +31°C° 0 mm 1 mps 747 mmHg 45%
    17:00 +31°C° 0 mm 1 mps 747 mmHg 49%
    18:00 +30°C° 0 mm 1 mps 747 mmHg 53%
    19:00 +28°C° 0 mm 1 mps 747 mmHg 58%
    20:00 +27°C° 0 mm 1 mps 747 mmHg 63%
    21:00 +25°C° 0 mm 1 mps 747 mmHg 68%
    22:00 +24°C° 0 mm 1 mps 747 mmHg 72%
    23:00 +23°C° 0 mm 1 mps 747 mmHg 76%

    27 June, Wednesday

    Time Temperature Precipitation Wind Pressure Humidity
    00:00 +22°C° 0 mm 1 mps 747 mmHg 80%
    01:00 +21°C° 0.4 mm 1 mps 747 mmHg 83%
    02:00 +21°C° 0.4 mm 1 mps 747 mmHg 87%
    03:00 +21°C° 0.4 mm 1 mps 747 mmHg 90%
    04:00 +21°C° 0.3 mm 1 mps 747 mmHg 89%
    05:00 +22°C° 0.3 mm 1 mps 747 mmHg 89%
    06:00 +23°C° 0.3 mm 1 mps 748 mmHg 88%
    07:00 +24°C° 0.6 mm 1 mps 747 mmHg 82%
    08:00 +26°C° 0.6 mm 1 mps 747 mmHg 77%
    09:00 +27°C° 0.6 mm 1 mps 747 mmHg 72%
    10:00 +27°C° 1.2 mm 2 mps 747 mmHg 72%
    11:00 +27°C° 1.2 mm 2 mps 747 mmHg 71%
    12:00 +27°C° 1.2 mm 2 mps 747 mmHg 71%
    13:00 +28°C° 0.1 mm 2 mps 747 mmHg 65%
    14:00 +28°C° 0.1 mm 2 mps 747 mmHg 58%
    15:00 +29°C° 0.1 mm 2 mps 747 mmHg 51%
    16:00 +29°C° 0 mm 2 mps 747 mmHg 54%
    17:00 +28°C° 0 mm 2 mps 747 mmHg 56%
    18:00 +28°C° 0 mm 2 mps 747 mmHg 58%
    19:00 +26°C° 0.1 mm 2 mps 747 mmHg 64%
    20:00 +24°C° 0.1 mm 2 mps 747 mmHg 71%
    21:00 +22°C° 0.1 mm 1 mps 747 mmHg 77%
    22:00 +20°C° 0 mm 2 mps 747 mmHg 78%
    23:00 +19°C° 0 mm 2 mps 747 mmHg 79%

    28 June, Thursday

    Time Temperature Precipitation Wind Pressure Humidity
    00:00 +18°C° 0 mm 2 mps 747 mmHg 80%
    01:00 +17°C° 0 mm 2 mps 747 mmHg 80%
    02:00 +17°C° 0 mm 2 mps 747 mmHg 80%
    03:00 +18°C° 0 mm 1 mps 747 mmHg 79%
    04:00 +18°C° 0 mm 2 mps 747 mmHg 75%
    05:00 +19°C° 0 mm 2 mps 747 mmHg 70%
    06:00 +21°C° 0 mm 2 mps 747 mmHg 65%
    07:00 +23°C° 0 mm 2 mps 747 mmHg 58%
    08:00 +25°C° 0 mm 3 mps 747 mmHg 50%
    09:00 +27°C° 0 mm 3 mps 747 mmHg 42%
    10:00 +27°C° 0 mm 4 mps 747 mmHg 39%
    11:00 +28°C° 0 mm 4 mps 747 mmHg 37%
    12:00 +28°C° 0 mm 4 mps 747 mmHg 34%
    13:00 +28°C° 0 mm 4 mps 747 mmHg 36%
    14:00 +27°C° 0 mm 4 mps 747 mmHg 39%
    15:00 +26°C° 0 mm 4 mps 747 mmHg 41%
    16:00 +26°C° 0 mm 4 mps 747 mmHg 45%
    17:00 +25°C° 0 mm 4 mps 747 mmHg 48%
    18:00 +24°C° 0 mm 3 mps 747 mmHg 51%
    19:00 +21°C° 0 mm 3 mps 747 mmHg 57%
    20:00 +19°C° 0 mm 2 mps 747 mmHg 63%
    21:00 +17°C° 0 mm 2 mps 747 mmHg 68%
    22:00 +16°C° 0 mm 2 mps 747 mmHg 71%
    23:00 +15°C° 0 mm 2 mps 748 mmHg 73%
    Show more